Weather History for KHQZ - January, 2013

Change the Weather History Date:

Wednesday, January 9, 2013

  Actual Average (KDFW) Record (KDFW)
Temperature  
Mean Temperature 50 °F 46 °F  
Max Temperature 55 °F 56 °F 82 °F (1957)
Min Temperature 46 °F 35 °F 12 °F (1977)
Degree Days  
Heating Degree Days 14 20  
Month to date heating degree days 180  
Since 1 July heating degree days 1092  
Cooling Degree Days 0 0  
Month to date cooling degree days 0  
Year to date cooling degree days 0  
Moisture  
Dew Point 50 °F    
Average Humidity 94    
Maximum Humidity 100    
Minimum Humidity 87    
Precipitation  
Precipitation 1.50 in 0.06 in 1.52 in (2013)
Month to date precipitation 0.57  
Year to date precipitation 0.57  
Snow  
Snow 0.00 in 0.00 in 2.40 in (1962)
Month to date snowfall 0.1  
Since 1 July snowfall 0.4  
Snow Depth -    
Sea Level Pressure  
Sea Level Pressure 30.06 in    
Wind  
Wind Speed 9 mph (NE)    
Max Wind Speed 20 mph    
Max Gust Speed 29 mph    
Visibility 7 miles    
Events      
T = Trace of Precipitation, MM = Missing Value Source: NWS Daily Summary

Daily Weather History Graph

Daily Weather History Graph

Search for Another Location

Airport or City:

Trip Planner

Search our weather history database for the weather conditions in past years. The results will help you decide how hot, cold, wet, or windy it might be!

Date:

Astronomy

Jan. 09, 2013 Rise Set
Actual Time 7:29 AM CST 5:37 PM CST
Civil Twilight 7:02 AM CST 6:04 PM CST
Nautical Twilight 6:31 AM CST 6:35 PM CST
Astronomical Twilight 6:02 AM CST 7:05 PM CST
Moon 5:09 AM CST (1/9) 3:40 PM CST (1/9)
Length of Visible Light 11h 02m
Length of Day
10h 08m
Waning Crescent, 6% of the Moon is Illuminated
Jan 9
Waning Crescent
Jan 11
New
Jan 18
First Quarter
Jan 26
Full
Feb 3
Last Quarter

Hourly Weather History & Observations

Time (CST) Temp. Windchill Dew Point Humidity Pressure Visibility Wind Dir Wind Speed Gust Speed Precip Events Conditions
12:35 AM 46.4 °F 41.9 °F 44.6 °F 93% 30.09 in 7.0 mi North 9.2 mph - 0.03 in   Overcast
12:55 AM 46.4 °F 41.5 °F 44.6 °F 93% 30.07 in 5.0 mi NNE 10.4 mph - 0.05 in   Overcast
1:15 AM 46.4 °F 41.1 °F 44.6 °F 93% 30.06 in 5.0 mi North 11.5 mph - 0.01 in   Overcast
1:35 AM 46.4 °F 43.5 °F 44.6 °F 93% 30.06 in 7.0 mi North 5.8 mph - 0.02 in   Overcast
1:55 AM 46.4 °F 45.2 °F 44.6 °F 93% 30.07 in 7.0 mi North 3.5 mph - 0.04 in   Overcast
2:15 AM 46.4 °F - 44.6 °F 93% 30.08 in 5.0 mi Calm Calm - 0.03 in   Overcast
2:35 AM 46.4 °F 40.7 °F 46.4 °F 100% 30.09 in 5.0 mi North 12.7 mph - 0.05 in   Overcast
2:55 AM 46.4 °F 40.7 °F 44.6 °F 93% 30.07 in 7.0 mi North 12.7 mph - 0.08 in   Overcast
3:15 AM 46.4 °F 42.9 °F 44.6 °F 93% 30.07 in 7.0 mi NNE 6.9 mph - 0.02 in   Overcast
3:35 AM 46.4 °F 45.2 °F 44.6 °F 93% 30.08 in 10.0 mi NNE 3.5 mph - 0.05 in   Overcast
3:55 AM 46.4 °F 45.2 °F 46.4 °F 100% 30.09 in 7.0 mi North 3.5 mph - 0.07 in   Overcast
4:15 AM 46.4 °F 42.9 °F 46.4 °F 100% 30.08 in 7.0 mi North 6.9 mph - 0.02 in   Overcast
4:35 AM 48.2 °F - 46.4 °F 93% 30.07 in 7.0 mi North 5.8 mph - 0.04 in   Overcast
4:55 AM 48.2 °F - 46.4 °F 93% 30.07 in 7.0 mi North 6.9 mph - 0.06 in   Overcast
5:15 AM 48.2 °F - 46.4 °F 93% 30.09 in 7.0 mi North 9.2 mph - 0.01 in   Overcast
5:35 AM 48.2 °F - 46.4 °F 93% 30.09 in 5.0 mi North 10.4 mph - 0.03 in   Overcast
5:55 AM 48.2 °F - 46.4 °F 93% 30.09 in 4.0 mi North 10.4 mph - 0.06 in   Overcast
6:15 AM 48.2 °F - 46.4 °F 93% 30.10 in 5.0 mi North 9.2 mph - 0.02 in   Overcast
6:35 AM 48.2 °F - 46.4 °F 93% 30.09 in 5.0 mi North 10.4 mph - 0.04 in   Overcast
6:55 AM 50.0 °F - 46.4 °F 87% 30.09 in 7.0 mi North 9.2 mph - 0.06 in   Overcast
7:15 AM 50.0 °F - 48.2 °F 94% 30.09 in 7.0 mi North 10.4 mph - 0.01 in   Overcast
7:35 AM 50.0 °F - 48.2 °F 94% 30.10 in 7.0 mi NNE 10.4 mph 17.3 mph 0.03 in   Overcast
7:55 AM 50.0 °F - 48.2 °F 94% 30.11 in 7.0 mi North 10.4 mph 16.1 mph 0.06 in   Overcast
8:35 AM 51.8 °F - 50.0 °F 94% 30.13 in 10.0 mi NNE 8.1 mph - 0.04 in   Overcast
8:55 AM 51.8 °F - 50.0 °F 94% 30.13 in 7.0 mi NNE 8.1 mph - 0.06 in   Overcast
9:15 AM 51.8 °F - 50.0 °F 94% 30.13 in 5.0 mi NNE 9.2 mph - 0.02 in   Overcast
9:35 AM 51.8 °F - 50.0 °F 94% 30.13 in 5.0 mi NNE 9.2 mph - 0.04 in   Overcast
9:55 AM 51.8 °F - 50.0 °F 94% 30.14 in 3.0 mi NE 6.9 mph - 0.06 in   Overcast
10:15 AM 51.8 °F - 50.0 °F 94% 30.14 in 0.8 mi NNE 6.9 mph - 0.02 in   Overcast
10:35 AM 51.8 °F - 50.0 °F 94% 30.13 in 2.5 mi NNE 4.6 mph - 0.04 in   Overcast
10:55 AM 51.8 °F - 50.0 °F 94% 30.13 in 4.0 mi NNE 4.6 mph - 0.06 in   Overcast
11:35 AM 53.6 °F - 51.8 °F 94% 30.10 in 4.0 mi NNE 5.8 mph - 0.04 in   Overcast
12:15 PM 53.6 °F - 51.8 °F 94% 30.06 in 7.0 mi NE 10.4 mph - 0.02 in   Overcast
12:35 PM 53.6 °F - 51.8 °F 94% 30.06 in 7.0 mi NE 9.2 mph 16.1 mph 0.04 in   Overcast
12:55 PM 53.6 °F - 51.8 °F 94% 30.06 in 7.0 mi ENE 10.4 mph - 0.07 in   Overcast
1:15 PM 53.6 °F - 51.8 °F 94% 30.06 in 4.0 mi ENE 10.4 mph - 0.01 in   Overcast
1:35 PM 53.6 °F - 51.8 °F 94% 30.05 in 7.0 mi ENE 10.4 mph 18.4 mph 0.02 in   Overcast
1:55 PM 53.6 °F - 51.8 °F 94% 30.01 in 7.0 mi ENE 16.1 mph 21.9 mph 0.04 in   Overcast
2:15 PM 53.6 °F - 51.8 °F 94% 29.98 in 10.0 mi ENE 19.6 mph 28.8 mph 0.01 in   Overcast
2:35 PM 53.6 °F - 51.8 °F 94% 30.00 in 10.0 mi ENE 12.7 mph 24.2 mph 0.03 in   Overcast
2:55 PM 53.6 °F - 51.8 °F 94% 30.02 in 10.0 mi ENE 10.4 mph 19.6 mph 0.04 in   Overcast
3:15 PM 53.6 °F - 51.8 °F 94% 30.04 in 10.0 mi ENE 12.7 mph 18.4 mph 0.01 in   Overcast
3:35 PM 55.4 °F - 53.6 °F 94% 30.05 in 10.0 mi ENE 11.5 mph 16.1 mph 0.03 in   Overcast
3:55 PM 55.4 °F - 53.6 °F 94% 30.05 in 7.0 mi ENE 9.2 mph 16.1 mph 0.05 in   Overcast
4:15 PM 55.4 °F - 53.6 °F 94% 30.05 in 10.0 mi ENE 13.8 mph 20.7 mph 0.02 in   Overcast
4:35 PM 55.4 °F - 53.6 °F 94% 30.05 in 10.0 mi ENE 12.7 mph 18.4 mph 0.04 in   Overcast
4:55 PM 55.4 °F - 53.6 °F 94% 30.04 in 7.0 mi ENE 9.2 mph 19.6 mph 0.07 in   Overcast
5:15 PM 55.4 °F - 53.6 °F 94% 30.05 in 7.0 mi East 8.1 mph - 0.02 in   Overcast
5:55 PM 53.6 °F - 51.8 °F 94% 30.01 in 10.0 mi ENE 16.1 mph 24.2 mph 0.08 in   Overcast
6:15 PM 53.6 °F - 51.8 °F 94% 29.98 in 10.0 mi ENE 16.1 mph 23.0 mph 0.03 in   Overcast
6:35 PM 53.6 °F - 51.8 °F 94% 29.98 in 10.0 mi ENE 18.4 mph 27.6 mph 0.06 in   Overcast
6:55 PM 53.6 °F - 51.8 °F 94% 29.99 in 10.0 mi ENE 13.8 mph 27.6 mph 0.10 in   Overcast
7:15 PM 53.6 °F - 51.8 °F 94% 30.01 in 10.0 mi ENE 11.5 mph 24.2 mph 0.03 in   Overcast
7:35 PM 53.6 °F - 51.8 °F 94% 30.00 in 10.0 mi ENE 16.1 mph 26.5 mph 0.07 in   Overcast
7:55 PM 53.6 °F - 51.8 °F 94% 29.98 in 10.0 mi ENE 17.3 mph 25.3 mph 0.10 in   Overcast
8:15 PM 55.4 °F - 51.8 °F 88% 30.02 in 10.0 mi East 13.8 mph 19.6 mph 0.02 in   Overcast
8:35 PM 55.4 °F - 51.8 °F 88% 30.02 in 10.0 mi East 11.5 mph 20.7 mph 0.04 in   Overcast
8:55 PM 55.4 °F - 53.6 °F 94% 30.04 in 10.0 mi ESE 10.4 mph - 0.07 in   Overcast
9:15 PM 55.4 °F - 53.6 °F 94% 30.06 in 10.0 mi SE 8.1 mph - 0.02 in   Overcast
9:55 PM 55.4 °F - 53.6 °F 94% 30.05 in 1.8 mi East 5.8 mph - 0.06 in   Overcast
10:15 PM 55.4 °F - 53.6 °F 94% 30.05 in 2.5 mi ENE 6.9 mph - 0.02 in   Overcast
10:35 PM 55.4 °F - 53.6 °F 94% 30.04 in 3.0 mi ENE 6.9 mph - 0.05 in   Overcast
11:15 PM 53.6 °F - 53.6 °F 100% 30.02 in 3.0 mi NE 6.9 mph - 0.02 in   Overcast
11:35 PM 53.6 °F - 53.6 °F 100% 30.01 in 2.5 mi ENE 9.2 mph 18.4 mph 0.05 in   Overcast
11:55 PM 53.6 °F - 51.8 °F 94% 30.03 in 5.0 mi ENE 6.9 mph - 0.07 in   Overcast